Location: La Pernelle
(49.6188°N, 1.2999°W)
Time: 10:27:10
(UTC+00:00)

Meteor 2-20 - Pass Details

Date: 01 November 2021
Orbit: 939 x 958 km, 82.5° (Epoch: 08 December)

Event Time Altitude Azimuth Distance (km) Brightness Sun altitude
Rises 04:43:37 0° 188° (S) 3,600 7.4 -21.5°
Reaches altitude 10° 04:46:05 10° 188° (S) 2,657 6.7 -21.1°
Maximum altitude 04:52:11 90° 276° (W) 949 4.4 -20.1°
Drops below altitude 10° 04:58:18 10° 10° (N) 2,667 6.9 -19.1°
Sets 05:00:47 0° 11° (N) 3,615 7.6 -18.7°
